Weather Roundup
Issued by NWS

Home | Current Version | Previous Version | Text Only | Print | Product List | Glossary On
Versions: 1 2 3 4 5 6 7 8 9 10 11 12 13 14 15 16 17 18 19 20 21 22 23 24 25 26 27 28 29 30 31 32 33 34 35 36 37 38 39 40 41 42 43 44 45 46 47 48 49 50
046
NZUS93 KARX 222310
HRRWXR

CURRENT HOURLY OBSERVATIONS ACROSS
MUCH OF THE UPPER MISSISSIPPI VALLEY
NATIONAL WEATHER SERVICE LA CROSSE WI
600 PM CDT MON MAY 22 2017


...SOUTHEAST MINNESOTA...


CITY           SKY/WX    TMP DP  RH WIND       PRES   REMARKS
ROCHESTER      SUNNY     65  48  54 W9        29.81F
ROCHESTER/MAYO FAIR      67  42  41 W9        29.81F
WINONA         MOSUNNY   70  46  43 NW6       29.80F
AUSTIN         MOSUNNY   66  45  45 NW6       29.79F
ALBERT LEA     SUNNY     66  45  45 CALM      29.79F
DODGE CENTER   SUNNY     64  45  48 NW6       29.81F
PRESTON        SUNNY     65  47  53 NW5       29.81F
OWATONNA       CLOUDY    64  45  48 NW9       29.81F
FARIBAULT      MOSUNNY   64  46  52 W7        29.82S
$$

...ELSEWHERE IN MINNESOTA...


CITY           SKY/WX    TMP DP  RH WIND       PRES   REMARKS
MINNEAPOLIS    MOSUNNY   65  40  39 W13       29.81S
INTNL FALLS    CLOUDY    50  42  74 NW7       29.80R
DULUTH         PTSUNNY   54  43  66 W12       29.79S
RED WING       MOSUNNY   66  41  39 W7        29.80S
REDWOOD FALLS  LGT RAIN  60  43  53 N7        29.83S
MANKATO        CLOUDY    62  47  57 NW7       29.82F
WORTHINGTON    CLOUDY    59  50  72 NW13      29.84S
FAIRMONT       RAIN      61  49  64 NW12      29.82R
$$

...SOUTHWEST WISCONSIN...


CITY           SKY/WX    TMP DP  RH WIND       PRES   REMARKS
LA CROSSE      MOSUNNY   71  49  45 W9        29.79F
PRAIRIE DU CHI CLOUDY    67  50  53 CALM      29.80F
BOSCOBEL       CLOUDY    68  50  52 SW3       29.81F
LONE ROCK      MOSUNNY   68  53  58 W6        29.82F
PLATTEVILLE    CLOUDY    67  57  71 SW5       29.84S
FORT MC COY    MOSUNNY   68  47  46 SW7       29.81F
CAMP DOUGLAS   MOSUNNY   68  46  45 SW13      29.80F
MAUSTON-NEW LI PTCLDY    68  50  52 SW5       29.80F
VIROQUA        FAIR      67  50  53 N7        29.82F
WIS DELLS      CLOUDY    64  50  59 SW9       29.83F
$$

...ELSEWHERE IN WISCONSIN...


CITY           SKY/WX    TMP DP  RH WIND       PRES   REMARKS
MILWAUKEE      PTSUNNY   67  51  56 SE9       29.86F
MADISON        PTSUNNY   65  52  62 VRB5      29.84F
GREEN BAY      MOSUNNY   66  53  63 S16G22    29.79S
EAU CLAIRE     PTSUNNY   64  43  46 W8        29.80S
BLACK RVR FLS  MOCLDY    68  41  36 W9G17     29.80S
MEDFORD        PTSUNNY   59  43  55 W7        29.82R
WAUSAU         PTSUNNY   62  43  49 W16G23    29.80R
WIS RAPIDS     PTSUNNY   67  43  41 W10       29.81S
MARSHFIELD     PTSUNNY   64  43  46 W13       29.80S
RICE LAKE      CLOUDY    59  41  51 W9        29.83S
$$

...NORTHEAST IOWA...


CITY           SKY/WX    TMP DP  RH WIND       PRES   REMARKS
WATERLOO       LGT RAIN  67  54  63 S17       29.78F
DUBUQUE        CLOUDY    64  57  78 SW14      29.83S
DECORAH        CLOUDY    66  50  55 SW5       29.80F
MASON CITY     CLOUDY    63  54  72 S3        29.80F THUNDER
CHARLES CITY   CLOUDY    68  50  52 CALM      29.80F
OELWEIN        CLOUDY    68  52  56 W10       29.81S
$$

...ELSEWHERE IN IOWA...


CITY           SKY/WX    TMP DP  RH WIND       PRES   REMARKS
DES MOINES     CLOUDY    70  53  54 SW14G25   29.83F
IOWA CITY      CLOUDY    66  56  70 S14G21    29.87F
FORT DODGE     CLOUDY    70  46  43 W8G17     29.80S
MARSHALLTOWN   CLOUDY    69  53  56 SW18      29.80F
CEDAR RAPIDS   MOSUNNY   65  58  78 SW10G22   29.84S
$$

...NORTHERN ILLINOIS...


CITY           SKY/WX    TMP DP  RH WIND       PRES   REMARKS
CHICAGO-OHARE  CLOUDY    70  49  47 SW17      29.90R
CHICAGO-MIDWAY CLOUDY    72  43  35 SW20G25   29.91R
MOLINE         CLOUDY    64  54  69 SW12      29.88F
ROCKFORD       CLOUDY    69  53  56 SW14G26   29.89S
PEORIA         LGT RAIN  60  59  96 SW8       29.99F
$$

NOTE: "FAIR" INDICATES FEW OR NO CLOUDS BELOW 12,000 FEET WITH NO
SIGNIFICANT WEATHER AND/OR OBSTRUCTIONS TO VISIBILITY. WIND
SPEEDS ARE IN MILES-PER-HOUR.




USA.gov is the U.S. government's official web portal to all federal, state and local government web resources and services.